Terminal Aerodrome Forecast
Issued by NWS

Home | Current Version | Previous Version | Text Only | Print | Product List | Glossary On
Versions: 1 2 3 4 5 6 7 8 9 10 11 12 13 14 15
663
FTUS44 KLZK 191330 AAA
TAFBPK
TAF AMD
KBPK 191330Z 1914/2012 08003KT 1/4SM FG OVC001
      TEMPO 1914/1915 1SM BR OVC003
     FM191500 14006KT P6SM SCT025 BKN250
     FM191800 15008KT P6SM BKN040
     FM200200 14007KT 4SM BR OVC030=

USA.gov is the U.S. government's official web portal to all federal, state and local government web resources and services.